This is the latest recevied weather packets stored in our database for station/object KC2GYU. If no packets are shown the sender has not sent any weather packets the latest 10 day(s).
| Time | Temp. | Humidity | Pressure | Rain* | Wind** | Luminosity | Snow |
|---|---|---|---|---|---|---|---|
| 1777545961 | 10° C | 99% | 1008.1 hPa | 0 mm | - | 20 W/m² | - |
| 1777545657 | 10° C | 99% | 1007.9 hPa | 0 mm | - | 15 W/m² | - |
| 1777545355 | 10° C | 99% | 1008.2 hPa | 0 mm | - | 13 W/m² | - |
| 1777545052 | 10° C | 99% | 1007.8 hPa | 0 mm | - | 10 W/m² | - |
| 1777544749 | 9.44° C | 99% | 1007.9 hPa | 0 mm | - | 6 W/m² | - |
| 1777544444 | 9.44° C | 99% | 1007.8 hPa | 0 mm | - | 3 W/m² | - |
| 1777544140 | 9.44° C | 99% | 1007.7 hPa | 0 mm | - | 2 W/m² | - |
| 1777543838 | 9.44° C | 99% | 1007.7 hPa | 0 mm | - | 2 W/m² | - |
| 1777543534 | 9.44° C | 99% | 1008 hPa | 0 mm | - | 0 W/m² | - |
| 1777543231 | 9.44° C | 99% | 1007.4 hPa | 0 mm | - | 0 W/m² | - |
| 1777542926 | 8.89° C | 99% | 1007.6 hPa | 0 mm | - | 0 W/m² | - |
| 1777542623 | 8.89° C | 99% | 1007.5 hPa | 0 mm | - | 0 W/m² | - |
| 1777542319 | 9.44° C | 99% | 1007.3 hPa | 0 mm | - | 0 W/m² | - |
| 1777542016 | 9.44° C | 99% | 1007.4 hPa | 0 mm | - | 0 W/m² | - |
| 1777541714 | 9.44° C | 99% | 1007.3 hPa | 0 mm | - | 0 W/m² | - |
| 1777541411 | 9.44° C | 99% | 1007.4 hPa | 0 mm | - | 0 W/m² | - |
| 1777541106 | 9.44° C | 99% | 1007 hPa | 0 mm | - | 0 W/m² | - |
| 1777540804 | 10° C | 99% | 1007 hPa | 0 mm | - | 0 W/m² | - |
| 1777540501 | 10° C | 99% | 1007.2 hPa | 0 mm | - | 0 W/m² | - |
| 1777540197 | 10° C | 99% | 1007.1 hPa | 0 mm | - | 0 W/m² | - |
| 1777539891 | 10° C | 99% | 1007.1 hPa | 0 mm | - | 0 W/m² | - |
| 1777539589 | 10° C | 99% | 1007.3 hPa | 0 mm | - | 0 W/m² | - |
| 1777539284 | 10° C | 99% | 1007.3 hPa | 0 mm | - | 0 W/m² | - |
| 1777538982 | 10° C | 99% | 1007.2 hPa | 0 mm | - | 0 W/m² | - |
| 1777538677 | 10° C | 99% | 1007.1 hPa | 0 mm | - | 0 W/m² | - |
* Rain latest hour (hover to see other rain measurements)
** Current wind speed in m/s (hover to see current wind gust speed)